Temp
77 77 77 76 76 76 75 76 76 76 75 75 75 74 74 73 83 78 78 77 76 77 76 76 76 76 76 75 76 75 75 76 76
77 76 76 76 76 75 76 76 76 75 75 75 74 73 73 78 80 76 78 77 77 77 76 76 76 75 75 75 75 75 75 75 75
76 75 75 75 76 75 75 75 75 75 75 74 73 72 72 80 82 75 76 76 77 76 75 75 75 74 74 74 74 74 74 74 74
75 75 75 75 75 75 75 74 75 75 74 73 72 71 71 79 82 79 77 75 76 75 74 74 74 73 73 73 72 72 72 72 72
74 74 74 74 74 74 74 74 74 74 73 72 71 70 71 82 81 79 76 75 75 75 74 74 73 72 72 71 71 71 71 71 71
75 73 72 73 73 73 74 74 73 71 71 71 70 69 80 82 82 79 73 75 75 74 73 72 72 71 71 71 70 70 70 70 70
81 73 71 72 72 72 73 73 71 70 78 75 69 77 82 81 80 77 73 74 74 73 72 71 71 71 70 70 70 69 69 69 69
80 77 76 76 70 75 74 73 76 78 82 80 80 81 82 81 80 73 72 74 73 72 71 71 70 70 70 69 69 68 68 68 68
81 80 79 78 77 79 77 78 79 80 81 81 81 81 81 80 79 71 69 72 72 72 71 70 70 69 69 68 68 67 67 67 67
82 82 81 80 81 81 79 81 80 79 80 81 80 79 79 78 78 77 68 70 71 71 71 70 70 69 68 68 67 66 66 66 66
81 81 80 80 81 81 81 80 79 79 80 79 79 78 77 77 77 78 72 68 70 71 71 70 70 69 69 68 67 66 65 65 65
81 81 77 77 81 81 80 80 79 78 78 77 78 77 77 76 75 76 74 69 67 69 70 70 69 69 69 68 67 66 65 64 64
80 80 80 79 79 79 79 78 76 76 75 75 75 75 75 75 75 74 75 72 71 67 68 68 68 68 68 67 66 65 65 64 64
80 80 80 81 78 77 77 76 75 73 73 73 74 73 72 73 74 73 73 72 71 69 65 65 65 66 67 66 66 65 64 63 63
80 80 80 80 78 72 76 75 75 74 72 73 71 70 70 69 69 70 72 71 69 69 65 62 62 63 64 64 64 63 63 62 63
80 79 79 79 78 74 73 74 72 71 73 69 66 67 67 67 67 68 69 68 67 68 67 64 64 60 60 60 60 60 61 61 62
79 78 77 78 77 76 71 71 70 69 70 65 63 59 62 64 66 67 67 67 65 65 66 65 64 62 60 58 57 58 59 60 61
77 77 76 76 76 74 74 71 69 65 66 68 65 58 58 59 63 63 65 66 65 64 63 63 62 62 60 56 55 55 56 57 59
72 74 74 73 73 73 73 73 70 67 63 63 67 65 64 59 54 60 62 64 63 61 60 60 59 59 58 54 54 54 54 56 57
69 69 69 70 69 70 69 70 69 67 65 61 59 61 60 60 56 53 53 58 60 60 59 59 58 57 55 54 53 52 52 54 55
MSLP
1016.87 1016.94 1016.96 1016.98 1017.20 1017.44 1017.75 1018.00 1018.21 1018.41 1018.59 1018.79 1018.88 1019.03 1018.93 1018.82 1018.08 1018.52 1018.85 1018.88 1019.07 1019.07 1019.21 1019.28 1019.28 1019.33 1019.39 1019.14 1019.30 1019.32 1019.01 1019.26 1019.32
1017.06 1017.07 1017.08 1017.26 1017.47 1017.74 1018.01 1018.20 1018.45 1018.66 1018.85 1019.06 1019.18 1019.21 1019.05 1018.56 1018.46 1018.92 1019.09 1019.37 1019.33 1019.32 1019.54 1019.69 1019.82 1019.86 1019.87 1019.78 1019.82 1019.80 1019.64 1019.76 1019.76
1017.20 1017.34 1017.46 1017.62 1017.77 1018.00 1018.25 1018.48 1018.70 1018.90 1019.10 1019.30 1019.37 1019.36 1019.09 1018.41 1018.47 1019.19 1019.39 1019.65 1019.59 1019.78 1019.90 1020.04 1020.19 1020.31 1020.33 1020.33 1020.40 1020.43 1020.34 1020.32 1020.33
1017.49 1017.64 1017.74 1017.89 1018.02 1018.21 1018.45 1018.67 1018.86 1019.07 1019.25 1019.46 1019.53 1019.52 1019.31 1018.75 1018.67 1018.98 1019.43 1019.76 1019.81 1020.01 1020.20 1020.34 1020.54 1020.72 1020.83 1020.84 1020.83 1020.84 1020.91 1020.85 1020.86
1017.73 1017.83 1017.96 1018.16 1018.38 1018.56 1018.78 1018.97 1019.07 1019.28 1019.45 1019.63 1019.76 1019.76 1019.50 1018.78 1018.96 1019.11 1019.83 1019.98 1020.13 1020.28 1020.45 1020.57 1020.84 1021.04 1021.20 1021.31 1021.30 1021.33 1021.28 1021.28 1021.36
1017.75 1017.74 1018.03 1018.36 1018.64 1018.84 1018.96 1019.15 1019.34 1019.57 1019.72 1019.82 1019.94 1019.89 1019.02 1018.79 1018.90 1019.23 1020.02 1020.25 1020.46 1020.64 1020.82 1021.05 1021.20 1021.34 1021.52 1021.59 1021.61 1021.57 1021.70 1021.61 1021.68
1017.04 1017.73 1018.18 1018.45 1018.76 1019.00 1019.16 1019.34 1019.50 1019.57 1019.17 1019.67 1019.94 1019.44 1018.89 1019.00 1019.25 1019.72 1020.26 1020.39 1020.67 1020.98 1021.19 1021.45 1021.57 1021.76 1021.83 1021.90 1022.04 1022.09 1022.05 1022.15 1021.97
1017.07 1017.58 1018.08 1018.34 1018.83 1018.75 1019.10 1019.35 1019.21 1018.84 1018.37 1018.73 1018.87 1018.68 1018.74 1019.06 1019.38 1020.13 1020.48 1020.52 1020.83 1021.16 1021.40 1021.63 1021.73 1021.93 1022.15 1022.19 1022.32 1022.51 1022.60 1022.52 1022.50
1016.66 1016.90 1017.37 1017.62 1018.01 1017.89 1018.37 1018.39 1018.36 1018.34 1018.38 1018.46 1018.51 1018.67 1018.90 1019.18 1019.53 1020.31 1020.69 1020.71 1021.00 1021.29 1021.48 1021.78 1021.92 1022.07 1022.23 1022.46 1022.63 1022.81 1022.82 1022.80 1022.95
1016.20 1016.47 1016.75 1017.00 1017.14 1017.24 1017.56 1017.62 1017.78 1018.25 1018.32 1018.42 1018.41 1018.79 1019.04 1019.31 1019.68 1019.86 1020.70 1020.84 1021.14 1021.34 1021.66 1021.94 1022.15 1022.33 1022.42 1022.56 1022.75 1022.99 1023.13 1023.09 1023.06
1015.72 1016.05 1016.47 1016.78 1016.88 1017.02 1017.15 1017.39 1017.61 1017.99 1018.12 1018.25 1018.53 1018.83 1019.20 1019.42 1019.65 1019.64 1020.56 1021.06 1021.25 1021.44 1021.75 1021.90 1022.14 1022.33 1022.57 1022.68 1022.85 1023.07 1023.21 1023.29 1023.44
1015.46 1015.56 1016.38 1016.73 1016.82 1016.91 1016.98 1017.16 1017.41 1017.76 1017.95 1018.14 1018.40 1018.79 1019.04 1019.43 1019.59 1019.64 1020.05 1021.08 1021.40 1021.41 1021.68 1021.87 1022.16 1022.34 1022.54 1022.80 1022.95 1023.20 1023.37 1023.51 1023.59
1015.18 1015.41 1015.53 1016.14 1016.60 1016.72 1016.83 1017.01 1017.42 1017.70 1018.00 1018.15 1018.39 1018.74 1019.05 1019.18 1019.43 1019.71 1019.70 1020.33 1020.99 1021.54 1021.66 1021.86 1022.14 1022.39 1022.64 1022.85 1022.97 1023.24 1023.48 1023.54 1023.66
1014.80 1015.03 1015.11 1015.24 1015.77 1016.40 1016.63 1016.87 1017.17 1017.49 1017.81 1018.03 1018.44 1018.85 1019.12 1019.26 1019.28 1019.57 1019.76 1020.05 1020.50 1021.06 1021.65 1021.94 1022.20 1022.48 1022.71 1023.00 1023.06 1023.21 1023.48 1023.60 1023.69
1014.41 1014.60 1014.67 1014.84 1015.24 1016.08 1016.28 1016.65 1016.95 1017.05 1017.45 1017.89 1018.27 1018.80 1019.06 1019.26 1019.31 1019.51 1019.67 1020.01 1020.50 1020.66 1021.29 1021.97 1022.29 1022.62 1022.81 1023.07 1023.24 1023.34 1023.57 1023.63 1023.62
1013.97 1014.21 1014.32 1014.45 1014.69 1015.16 1015.93 1016.19 1016.71 1017.04 1017.16 1017.75 1018.31 1018.66 1019.00 1019.16 1019.26 1019.31 1019.39 1019.82 1020.29 1020.60 1020.96 1021.58 1021.86 1022.60 1022.93 1023.18 1023.31 1023.38 1023.51 1023.48 1023.53
1012.83 1013.51 1013.95 1014.11 1014.29 1014.47 1015.23 1015.80 1016.22 1016.70 1016.95 1017.28 1017.98 1018.27 1018.67 1018.77 1018.90 1019.02 1019.15 1019.49 1020.01 1020.38 1020.64 1021.20 1021.52 1021.91 1022.51 1022.77 1023.24 1023.49 1023.47 1023.35 1023.43
1012.61 1012.68 1013.29 1013.76 1014.06 1014.13 1014.31 1014.92 1015.35 1016.01 1016.61 1016.64 1016.59 1017.24 1017.32 1017.84 1018.31 1018.78 1019.07 1019.24 1019.62 1020.05 1020.59 1020.93 1021.32 1021.70 1022.26 1022.83 1023.15 1023.42 1023.66 1023.64 1023.45
1012.49 1012.66 1012.89 1013.26 1013.64 1013.88 1013.93 1014.25 1014.61 1015.46 1015.79 1016.58 1016.24 1016.26 1016.80 1017.18 1018.22 1018.61 1018.85 1019.10 1019.32 1019.83 1020.41 1020.80 1021.34 1021.65 1022.16 1022.70 1023.09 1023.27 1023.63 1023.63 1023.67
1012.08 1012.54 1012.80 1013.01 1013.18 1013.47 1013.72 1014.01 1014.27 1014.83 1015.26 1015.50 1016.06 1016.52 1016.93 1017.10 1017.47 1018.08 1018.67 1019.05 1019.22 1019.51 1019.90 1020.49 1020.98 1021.45 1021.90 1022.32 1022.76 1023.25 1023.52 1023.25 1023.46
Wind_Speed
5 2 6 10 10 10 13 12 11 11 10 9 8 6 3 8 8 7 8 11 11 14 14 13 15 16 15 17 5 9 4 2 6
7 6 10 9 11 14 13 11 10 9 8 7 6 2 4 8 9 9 8 9 10 12 14 14 13 13 13 14 16 17 19 17 16
6 5 11 12 14 13 11 10 9 8 7 6 5 2 7 1 5 9 7 6 9 12 13 13 12 12 13 14 14 14 14 14 15
5 5 10 10 11 11 10 9 8 7 7 6 4 2 5 5 4 10 6 8 12 13 12 13 12 10 12 13 14 14 14 14 14
4 4 5 9 9 9 8 7 7 7 7 6 4 3 7 2 3 8 6 7 9 10 11 11 11 10 11 12 12 13 13 13 13
9 4 10 6 8 7 7 7 7 7 5 4 3 5 5 3 2 6 7 8 8 9 9 10 9 9 9 10 11 12 11 12 12
8 9 6 7 8 6 7 8 7 8 7 5 4 6 3 2 2 7 4 8 8 8 9 8 9 8 8 9 9 10 10 10 11
6 6 6 7 7 6 7 7 6 9 5 7 8 5 4 3 2 7 2 8 9 8 8 7 8 7 7 8 9 9 9 9 9
7 7 8 8 7 9 8 7 9 6 5 6 5 5 3 2 1 7 3 9 9 8 8 7 7 7 7 7 8 8 8 8 9
8 7 7 7 7 7 8 7 6 7 7 5 5 4 4 3 2 4 7 7 9 8 8 7 6 6 6 7 7 7 7 7 7
8 8 7 7 7 7 7 7 6 6 6 7 6 6 4 4 3 2 6 8 8 8 7 7 6 6 6 6 6 5 5 6 6
9 7 7 5 7 9 7 8 7 7 6 7 6 5 6 5 5 4 8 7 5 7 8 8 7 7 5 5 5 5 3 3 3
10 8 8 10 8 8 7 7 7 6 6 6 5 5 5 6 6 5 4 7 7 4 8 9 8 6 5 5 5 4 2 1 2
10 8 8 10 8 7 7 7 8 7 6 6 5 5 4 5 5 7 6 5 4 6 7 8 7 6 6 5 4 4 2 1 2
11 9 10 10 8 7 7 9 8 7 6 6 5 4 4 3 4 6 6 6 6 5 9 5 5 6 7 5 3 1 0 2 3
12 9 11 10 10 11 10 9 10 7 7 6 4 3 5 6 5 6 6 7 7 7 7 6 5 5 6 5 4 2 2 2 3
13 12 11 12 10 12 13 12 8 7 8 6 5 5 6 7 8 7 6 8 6 7 7 7 5 6 6 7 5 2 2 0 2
13 13 11 10 10 10 12 13 14 10 9 11 5 4 5 5 6 8 7 8 6 6 6 6 5 3 2 6 5 5 1 2 4
11 12 12 12 9 11 11 11 11 10 10 7 9 1 2 4 3 3 7 7 7 7 4 5 3 4 3 6 8 7 1 3 6
10 10 9 11 8 11 11 11 12 11 8 8 3 7 4 4 2 4 4 4 5 4 5 5 6 6 4 5 8 5 1 2 6
Wind_Direction
134 111 104 85 106 120 128 119 120 119 114 106 104 115 223 275 75 81 60 65 73 76 80 67 64 60 52 46 93 35 20 78 46
122 90 106 110 115 123 121 118 119 121 115 102 92 104 283 284 96 67 60 59 64 74 74 65 61 56 52 55 52 48 55 64 65
113 100 119 117 116 117 120 115 118 127 120 102 90 132 264 67 78 100 77 51 83 85 80 74 65 62 59 62 58 55 57 57 56
135 123 105 107 117 118 124 123 127 135 128 118 107 177 279 283 81 103 92 77 93 90 80 77 72 65 64 65 63 60 59 59 56
147 162 123 124 117 118 125 133 138 140 138 130 127 184 260 217 139 97 85 96 97 91 85 83 77 75 70 66 64 59 59 58 56
155 145 133 138 128 137 145 150 140 123 116 135 164 224 238 125 89 89 97 114 99 93 91 86 83 83 78 74 72 69 63 64 59
183 138 132 144 138 153 162 155 158 192 164 167 201 233 190 146 157 92 107 131 113 104 98 92 87 83 81 79 73 67 65 63 64
176 155 171 179 177 180 179 171 201 211 195 160 192 224 185 173 149 99 81 145 124 116 110 108 102 94 87 83 76 65 60 62 62
194 177 183 188 174 197 194 191 206 196 208 196 194 197 172 219 148 123 92 149 139 132 128 123 117 109 102 89 79 68 64 60 55
198 199 192 193 185 200 197 212 189 206 196 208 195 197 195 175 173 123 145 162 151 144 141 139 132 123 114 104 92 75 63 59 61
207 196 199 205 207 210 205 206 203 207 211 200 196 192 190 202 207 198 120 137 151 156 157 155 154 147 139 127 117 100 80 64 50
205 214 177 238 210 218 210 208 205 210 208 200 194 204 196 197 193 196 145 150 150 168 174 169 168 167 159 146 125 125 101 71 56
211 212 213 180 229 216 211 212 204 212 202 209 195 202 201 206 198 195 197 161 175 174 180 177 173 175 176 164 145 128 88 64 16
212 212 215 212 187 220 212 212 203 204 200 210 201 207 204 216 208 201 197 193 184 175 148 162 167 177 178 173 160 134 98 33 340
212 221 217 212 201 195 218 213 209 208 197 209 195 199 216 218 209 212 204 201 203 198 156 154 157 178 178 175 165 142 10 329 315
218 223 225 216 216 190 215 212 209 217 205 183 191 212 219 215 223 218 203 203 193 204 182 176 180 168 178 172 182 167 256 293 298
211 217 225 222 217 207 195 216 201 208 204 186 175 201 197 221 214 212 212 201 187 205 198 191 202 173 180 162 158 191 194 312 314
223 218 218 230 227 220 206 201 202 202 196 207 168 200 225 149 187 210 207 212 192 195 198 202 195 181 174 145 148 142 89 316 303
237 230 221 222 222 231 223 210 205 197 199 192 234 189 337 193 162 201 213 214 209 183 192 185 189 176 198 95 109 135 107 315 309
221 229 243 234 221 229 227 225 212 211 204 203 164 222 215 270 292 159 182 202 212 190 186 184 187 177 172 155 141 144 217 280 304